Regional Weather Roundup
Issued by NWS Goodland, KS

Home | Current Version | Previous Version | Graphics & Text | Print | Product List | Glossary On
Versions: 1 2 3 4 5 6 7 8 9 10 11 12 13 14 15 16 17 18 19 20 21 22 23 24 25 26 27 28 29 30 31 32 33 34 35 36 37 38 39 40 41 42 43 44 45 46 47 48 49 50
000
ASUS43 KGLD 042208
RWRGLD

GOODLAND FORECAST AREA HOURLY WEATHER ROUNDUP
NATIONAL WEATHER SERVICE GOODLAND KS
400 PM MDT TUE AUG 04 2015

...OFFICIAL OBSERVATIONS...

CITY           SKY/WX    TMP DP  RH WIND       PRES   REMARKS
GOODLAND KS    MOSUNNY   84  60  44 NE18G30   29.98R
HILL CITY KS   TSTM      71  67  87 S20G31    29.92S FOG
IMPERIAL NEB   CLOUDY    68  60  75 CALM      29.99S
MCCOOK NEB     CLOUDY    63  62  97 SE5       29.97S
AKRON CO       CLOUDY    80  50  34 NE14      30.05R
BURLINGTON CO  MOSUNNY   81  58  45 NE21G31   30.00R
LIMON CO       MOSUNNY   89  38  16 N10G21    30.05F
$$

...UNOFFICIAL OBSERVATIONS...

CITY           SKY/WX    TMP DP  RH WIND       PRES   REMARKS
COLBY KS       SUNNY     72  72 100 N10       29.97S
NORTON KS      RAIN      63  55  77 NW23G54   30.00
SHARON SPRINGS   N/A     91  64  40 NE12G26     N/A
KIT CARSON CO    N/A     91  50  24 MISG        N/A
YUMA CO          N/A     75  60  60 E9          N/A
$$


USA.gov is the U.S. government's official web portal to all federal, state and local government web resources and services.